| time (UTC) | temp C | wind direction | speed KPH | gust KPH | rain 1hr cm | rain 24hr cm | rain mn cm | humidity % | barometer mb |
| 20260904101541 | 25 | 108 | 4.8 | 14.5 | 0.00 | 0.48 | 0.00 | 84 | 1011.6 |
| 20260904100040 | 25 | 96 | 3.2 | 11.3 | 0.00 | 0.48 | 0.00 | 84 | 1011.5 |
| 20260904094539 | 25 | 102 | 6.4 | 16.1 | 0.00 | 0.48 | 0.00 | 84 | 1011.3 |
| 20260904093037 | 25 | 154 | 4.8 | 14.5 | 0.00 | 0.48 | 0.00 | 85 | 1011.6 |
| 20260904091549 | 25 | 124 | 6.4 | 11.3 | 0.00 | 0.48 | 0.00 | 85 | 1011.6 |
| 20260904090038 | 25 | 123 | 6.4 | 11.3 | 0.00 | 0.48 | 0.00 | 85 | 1011.6 |
| 20260904084536 | 25 | 71 | 6.4 | 11.3 | 0.00 | 0.48 | 0.00 | 85 | 1011.4 |
| 20260904083037 | 25 | 114 | 4.8 | 8.0 | 0.00 | 0.48 | 0.00 | 85 | 1011.5 |
| 20260904081534 | 25 | 117 | 3.2 | 14.5 | 0.00 | 0.48 | 0.00 | 85 | 1011.3 |
| 20260904080034 | 25 | 86 | 6.4 | 14.5 | 0.00 | 0.48 | 0.00 | 86 | 1011.5 |
| 20260904074549 | 24 | 205 | 3.2 | 9.7 | 0.00 | 0.48 | 0.00 | 86 | 1011.8 |
| 20260904073033 | 24 | 126 | 0.0 | 12.9 | 0.00 | 0.48 | 0.00 | 86 | 1012.1 |
| 20260904071532 | 24 | 144 | 3.2 | 6.4 | 0.00 | 0.48 | 0.00 | 85 | 1012.4 |
| 20260904070027 | 25 | 200 | 3.2 | 9.7 | 0.00 | 0.48 | 0.00 | 85 | 1012.3 |
| 20260904064532 | 25 | 135 | 3.2 | 8.0 | 0.00 | 0.48 | 0.00 | 85 | 1012.4 |
| 20260904063036 | 25 | 117 | 1.6 | 8.0 | 0.00 | 0.48 | 0.00 | 85 | 1012.3 |
| 20260904061521 | 25 | 82 | 1.6 | 9.7 | 0.00 | 0.48 | 0.00 | 85 | 1012.6 |
| 20260904060020 | 25 | 150 | 6.4 | 11.3 | 0.00 | 0.48 | 0.00 | 85 | 1013.2 |
| 20260904054516 | 25 | 138 | 6.4 | 12.9 | 0.00 | 0.48 | 0.48 | 85 | 1013.5 |
| 20260904053015 | 25 | 141 | 4.8 | 11.3 | 0.00 | 0.48 | 0.48 | 85 | 1013.7 |
| 20260904051516 | 25 | 160 | 6.4 | 11.3 | 0.00 | 0.48 | 0.48 | 84 | 1013.5 |
| 20260904050017 | 26 | 144 | 4.8 | 8.0 | 0.00 | 0.48 | 0.48 | 84 | 1013.4 |
| 20260904044514 | 26 | 126 | 3.2 | 11.3 | 0.00 | 0.48 | 0.48 | 83 | 1013.6 |
| 20260904043013 | 26 | 125 | 4.8 | 8.0 | 0.00 | 0.48 | 0.48 | 82 | 1014.0 |
| 20260904041519 | 26 | 61 | 3.2 | 9.7 | 0.00 | 0.48 | 0.48 | 82 | 1014.0 |
| 20260904040011 | 26 | 109 | 1.6 | 6.4 | 0.00 | 0.48 | 0.48 | 82 | 1013.9 |
| 20260904034510 | 26 | 80 | 8.0 | 17.7 | 0.00 | 0.48 | 0.48 | 83 | 1014.3 |
| 20260904033009 | 26 | 82 | 6.4 | 12.9 | 0.00 | 0.48 | 0.48 | 84 | 1014.4 |
| 20260904030009 | 25 | 278 | 3.2 | 8.0 | 0.00 | 0.48 | 0.48 | 84 | 1014.1 |
| 20260904024508 | 25 | 236 | 1.6 | 3.2 | 0.00 | 0.48 | 0.48 | 85 | 1013.9 |
| 20260904023009 | 25 | 257 | 1.6 | 4.8 | 0.00 | 0.48 | 0.48 | 85 | 1013.6 |
| 20260904021519 | 25 | 194 | 1.6 | 4.8 | 0.00 | 0.48 | 0.48 | 85 | 1013.5 |
| 20260904020007 | 25 | 131 | 0.0 | 4.8 | 0.00 | 0.48 | 0.48 | 85 | 1013.9 |
| 20260904014506 | 25 | 190 | 3.2 | 11.3 | 0.00 | 0.48 | 0.48 | 85 | 1013.9 |
| 20260904013005 | 25 | 181 | 9.7 | 17.7 | 0.00 | 0.48 | 0.48 | 85 | 1014.1 |
| 20260904011506 | 25 | 188 | 11.3 | 20.9 | 0.00 | 0.48 | 0.48 | 85 | 1014.2 |
| 20260904010003 | 25 | 123 | 17.7 | 27.4 | 0.00 | 0.48 | 0.48 | 84 | 1014.3 |
| 20260904004502 | 25 | 88 | 19.3 | 33.8 | 0.00 | 0.48 | 0.48 | 83 | 1013.5 |
| 20260904003005 | 26 | 80 | 30.6 | 45.1 | 0.00 | 0.48 | 0.48 | 82 | 1013.3 |
| 20260904001600 | 27 | 95 | 24.1 | 51.5 | 0.00 | 0.48 | 0.48 | 82 | 1013.2 |
| 20260904000059 | 28 | 76 | 29.0 | 38.6 | 0.05 | 0.48 | 0.48 | 80 | 1012.2 |
| 20260903234558 | 28 | 81 | 16.1 | 20.9 | 0.05 | 0.48 | 0.48 | 80 | 1011.4 |
| 20260903233057 | 28 | 15 | 12.9 | 17.7 | 0.05 | 0.48 | 0.48 | 78 | 1011.2 |
| 20260903231607 | 28 | 40 | 6.4 | 12.9 | 0.05 | 0.48 | 0.48 | 77 | 1011.4 |
| 20260903224555 | 31 | 115 | 12.9 | 33.8 | 0.43 | 0.43 | 0.43 | 72 | 1011.5 |
| 20260903223054 | 32 | 46 | 19.3 | 25.7 | 0.43 | 0.43 | 0.43 | 74 | 1010.8 |
| 20260903221554 | 31 | 38 | 19.3 | 32.2 | 0.43 | 0.43 | 0.43 | 75 | 1010.3 |
| 20260903220054 | 35 | 28 | 19.3 | 30.6 | 0.00 | 0.00 | 0.00 | 64 | 1010.1 |
| 20260903214602 | 35 | 18 | 11.3 | 17.7 | 0.00 | 0.00 | 0.00 | 58 | 1010.1 |
| 20260903213054 | 36 | 10 | 6.4 | 19.3 | 0.00 | 0.00 | 0.00 | 56 | 1010.1 |
| 20260903211552 | 36 | 11 | 6.4 | 20.9 | 0.00 | 0.00 | 0.00 | 55 | 1010.0 |
| 20260903204547 | 37 | 165 | 8.0 | 14.5 | 0.00 | 0.00 | 0.00 | 48 | 1010.3 |
| 20260903203049 | 37 | 88 | 0.0 | 8.0 | 0.00 | 0.00 | 0.00 | 48 | 1010.5 |
| 20260903201541 | 37 | 116 | 4.8 | 19.3 | 0.00 | 0.00 | 0.00 | 49 | 1010.8 |
| 20260903200045 | 37 | 132 | 1.6 | 9.7 | 0.00 | 0.00 | 0.00 | 51 | 1011.1 |
| 20260903194542 | 37 | 38 | 1.6 | 14.5 | 0.00 | 0.00 | 0.00 | 51 | 1011.4 |
| 20260903193035 | 36 | 67 | 6.4 | 14.5 | 0.00 | 0.00 | 0.00 | 55 | 1011.7 |
| 20260903191528 | 36 | 20 | 3.2 | 12.9 | 0.00 | 0.00 | 0.00 | 55 | 1011.9 |
| 20260903190025 | 35 | 163 | 8.0 | 17.7 | 0.00 | 0.00 | 0.00 | 55 | 1012.0 |
| 20260903184523 | 35 | 180 | 4.8 | 14.5 | 0.00 | 0.00 | 0.00 | 57 | 1012.1 |
| 20260903183022 | 35 | 142 | 4.8 | 16.1 | 0.00 | 0.00 | 0.00 | 57 | 1012.5 |
| 20260903181519 | 35 | 54 | 6.4 | 16.1 | 0.00 | 0.00 | 0.00 | 57 | 1012.6 |
| 20260903180124 | 35 | 128 | 0.0 | 8.0 | 0.00 | 0.00 | 0.00 | 59 | 1012.8 |
| 20260903174514 | 35 | 105 | 6.4 | 14.5 | 0.00 | 0.00 | 0.00 | 60 | 1013.1 |
| 20260903173012 | 35 | 127 | 6.4 | 19.3 | 0.00 | 0.00 | 0.00 | 61 | 1013.2 |
| 20260903171506 | 33 | 119 | 4.8 | 12.9 | 0.00 | 0.00 | 0.00 | 65 | 1013.5 |
| 20260903170004 | 33 | 142 | 8.0 | 14.5 | 0.00 | 0.00 | 0.00 | 66 | 1013.8 |
| 20260903164609 | 33 | 121 | 4.8 | 14.5 | 0.00 | 0.00 | 0.00 | 67 | 1014.0 |
| 20260903163056 | 32 | 139 | 3.2 | 12.9 | 0.00 | 0.00 | 0.00 | 71 | 1014.2 |
| 20260903161551 | 31 | 148 | 3.2 | 14.5 | 0.00 | 0.00 | 0.00 | 73 | 1014.4 |
| 20260903160048 | 31 | 157 | 6.4 | 14.5 | 0.00 | 0.00 | 0.00 | 74 | 1014.2 |
| 20260903154544 | 31 | 90 | 3.2 | 14.5 | 0.00 | 0.00 | 0.00 | 76 | 1014.4 |
| 20260903153042 | 31 | 142 | 9.7 | 14.5 | 0.00 | 0.00 | 0.00 | 76 | 1014.3 |
| 20260903151538 | 30 | 169 | 8.0 | 16.1 | 0.00 | 0.00 | 0.00 | 78 | 1014.1 |
| 20260903150035 | 30 | 138 | 9.7 | 14.5 | 0.00 | 0.00 | 0.00 | 79 | 1014.0 |
| 20260903144535 | 30 | 171 | 4.8 | 12.9 | 0.00 | 0.00 | 0.00 | 81 | 1014.0 |
| 20260903143029 | 29 | 98 | 6.4 | 11.3 | 0.00 | 0.00 | 0.00 | 82 | 1014.1 |
| 20260903141528 | 29 | 131 | 8.0 | 14.5 | 0.00 | 0.00 | 0.00 | 83 | 1014.1 |
| 20260903140027 | 28 | 105 | 3.2 | 11.3 | 0.00 | 0.00 | 0.00 | 84 | 1014.1 |
| 20260903134618 | 28 | 158 | 4.8 | 12.9 | 0.00 | 0.00 | 0.00 | 84 | 1014.0 |
| 20260903133013 | 27 | 107 | 3.2 | 11.3 | 0.00 | 0.00 | 0.00 | 84 | 1013.9 |
| 20260903131509 | 27 | 137 | 4.8 | 9.7 | 0.00 | 0.00 | 0.00 | 85 | 1013.9 |
| 20260903130018 | 27 | 131 | 1.6 | 6.4 | 0.00 | 0.00 | 0.00 | 85 | 1014.1 |
| 20260903124600 | 26 | 135 | 1.6 | 6.4 | 0.00 | 0.00 | 0.00 | 86 | 1014.1 |
| 20260903123058 | 26 | 150 | 1.6 | 6.4 | 0.00 | 0.00 | 0.00 | 86 | 1014.2 |
| 20260903121556 | 25 | 194 | 0.0 | 4.8 | 0.00 | 0.00 | 0.00 | 86 | 1014.1 |
| 20260903120052 | 25 | 134 | 0.0 | 9.7 | 0.00 | 0.00 | 0.00 | 86 | 1014.1 |
| 20260903114551 | 25 | 130 | 1.6 | 6.4 | 0.00 | 0.00 | 0.00 | 86 | 1013.9 |
| 20260903113045 | 25 | 134 | 3.2 | 6.4 | 0.00 | 0.00 | 0.00 | 86 | 1013.7 |
| 20260903111544 | 25 | 99 | 1.6 | 9.7 | 0.00 | 0.00 | 0.00 | 86 | 1013.6 |
| 20260903110110 | 25 | 34 | 0.0 | 6.4 | 0.00 | 0.00 | 0.00 | 86 | 1013.3 |
| 20260903104543 | 25 | 134 | 3.2 | 9.7 | 0.00 | 0.00 | 0.00 | 86 | 1013.2 |
| 20260903103042 | 25 | 91 | 1.6 | 6.4 | 0.00 | 0.00 | 0.00 | 85 | 1013.3 |